RH
34 44 51 55 76 87 98 100 88 84 81 85 98 100 99 100 100 95 77 92 85 77 76 66 61 60 64 62 63 63 61 58 56 55 60 63 62 61 60 65 74 68 81
33 42 55 61 74 88 96 98 94 84 86 94 100 100 99 98 98 97 75 93 77 78 73 66 61 62 60 59 61 62 61 58 56 54 52 56 58 58 59 61 57 57 68
31 42 56 67 74 87 96 97 98 88 94 97 100 100 100 92 92 95 68 61 77 69 66 55 48 50 62 62 67 62 61 58 55 53 47 51 55 55 54 51 57 60 64
29 40 52 67 72 84 94 97 99 96 96 98 100 97 94 97 85 68 59 80 65 62 55 59 52 42 44 49 74 71 65 64 59 55 46 55 64 69 68 61 60 64 65
22 35 48 60 73 79 91 97 99 99 94 95 97 100 94 95 81 83 71 72 72 67 62 62 58 47 49 63 82 78 73 74 76 71 59 55 61 72 73 72 72 67 67
19 30 42 52 66 75 87 96 98 99 99 92 98 99 99 94 88 71 78 72 65 66 55 53 61 83 67 61 81 83 74 71 71 80 80 73 63 55 61 72 71 74 74
21 27 40 50 59 69 79 92 98 98 100 94 93 98 98 94 91 73 61 64 70 68 60 64 62 63 73 81 74 76 74 70 69 64 65 70 68 60 68 70 73 73 72
19 23 33 44 54 64 74 82 98 100 100 100 98 100 99 99 99 94 79 66 68 77 72 69 60 55 88 81 79 66 63 63 65 65 68 71 64 59 61 66 68 82 81
18 23 30 40 48 60 68 78 86 97 98 99 99 99 99 98 98 93 88 75 67 69 85 72 63 65 72 84 78 62 60 61 69 67 60 66 68 62 63 65 63 70 85
17 23 26 35 44 52 64 72 79 83 92 87 95 100 100 99 98 100 95 91 82 67 71 68 60 68 80 83 79 62 59 60 62 65 71 67 66 64 64 64 68 79 82
18 18 23 28 38 47 56 66 74 76 81 85 85 94 96 99 99 99 96 92 89 84 81 77 70 72 79 84 79 78 70 62 66 71 72 74 72 70 74 78 78 77 75
17 19 21 28 30 43 52 60 68 72 70 76 79 77 74 98 92 84 85 91 89 85 74 70 72 71 61 64 65 72 72 72 74 80 81 79 82 88 83 90 90 82 73
19 20 21 27 33 37 46 54 62 68 70 68 76 78 73 70 65 69 80 84 86 91 91 81 76 79 70 63 64 69 77 78 80 78 83 84 83 85 85 84 83 85 80
23 29 33 35 33 36 41 47 54 64 67 69 67 76 76 66 46 50 70 83 85 86 91 89 87 82 80 82 84 84 84 84 84 84 84 82 86 86 84 88 89 98 93
29 37 42 43 43 41 37 41 48 54 62 68 69 67 75 82 86 84 74 75 83 92 93 97 93 91 90 85 82 82 85 88 90 89 89 88 89 88 88 86 90 92 95
41 45 45 47 50 49 47 44 43 47 53 63 69 68 70 75 86 91 96 99 95 92 97 97 97 97 92 88 89 90 92 93 92 93 92 91 90 87 84 93 98 97 96
46 49 51 54 56 58 56 49 43 40 41 52 59 69 70 71 76 84 92 92 92 98 97 94 100 98 94 89 94 95 96 95 95 94 93 93 90 88 89 100 100 100 100
47 50 53 57 63 68 69 61 51 43 40 38 50 58 69 71 72 78 88 85 87 95 98 99 98 96 94 95 93 97 98 95 94 95 96 100 100 98 94 100 100 100 100
46 51 57 65 74 78 67 62 52 52 49 42 35 43 55 64 71 74 79 86 93 96 96 98 99 100 98 97 97 94 94 92 92 92 92 98 100 100 100 100 100 100 100
54 59 64 72 83 73 76 77 75 69 71 64 62 47 38 53 64 70 74 80 88 92 94 94 96 96 96 95 91 94 96 94 95 100 100 100 100 100 100 100 100 100 100
63 66 68 77 90 81 85 95 100 96 81 82 70 55 42 44 56 66 70 75 82 88 90 90 90 92 93 96 100 100 100 100 100 100 100 100 100 100 100 99 99 98 100
69 79 81 80 76 71 88 97 94 98 99 95 97 79 72 53 61 64 66 74 79 87 92 95 98 98 94 98 99 100 100 100 100 100 100 100 100 100 99 100 98 98 98
85 90 96 95 86 85 88 93 98 93 96 98 98 99 97 85 80 71 71 72 80 90 97 100 100 99 100 100 100 100 100 100 100 100 99 96 100 99 98 97 97 97 97
99 100 100 100 99 99 98 98 98 100 100 97 98 100 100 100 100 100 100 99 98 100 100 100 100 100 100 100 100 100 100 99 100 97 99 97 97 97 96 97 96 96 95
100 100 100 100 100 99 99 100 100 99 100 98 99 100 100 100 100 100 100 100 100 100 100 100 100 99 100 98 99 97 98 98 97 97 97 96 96 96 96 96 95 95 94
100 98 99 98 100 100 100 99 98 100 100 98 100 98 100 99 100 100 99 100 100 98 100 100 98 99 94 96 99 96 96 97 96 97 96 95 96 95 95 95 94 94 91
Wind_Speed
18 19 18 15 15 13 17 18 17 15 14 12 14 16 30 39 42 43 40 32 35 36 34 25 23 26 24 24 22 22 22 19 21 19 19 17 18 17 17 19 22 22 23
21 21 20 18 18 15 15 19 17 17 14 14 24 34 36 38 42 38 40 34 37 37 34 29 30 27 23 21 22 22 22 20 22 21 21 16 16 21 24 22 22 21 19
24 26 23 21 20 19 19 23 22 19 14 15 26 29 36 39 42 39 41 38 33 34 31 32 34 31 28 24 20 25 24 25 23 26 19 16 16 23 24 27 27 22 22
24 29 27 24 24 22 20 21 24 24 19 19 26 34 37 39 45 49 45 39 36 37 39 33 33 31 28 25 26 26 26 22 24 25 28 24 18 7 6 24 21 27 26
20 29 30 26 23 23 23 22 27 26 26 25 29 34 34 37 46 46 45 45 40 39 41 38 32 35 31 27 29 29 28 27 24 27 23 28 26 21 16 11 17 19 23
19 23 28 26 25 22 25 23 27 29 31 30 30 35 35 39 46 51 49 45 44 44 43 40 35 30 29 33 27 26 27 29 31 25 21 21 23 25 20 19 20 22 22
19 21 30 29 28 27 31 25 27 33 36 34 32 33 36 39 42 50 56 54 49 47 49 40 40 37 34 35 38 35 32 32 32 30 29 28 27 24 24 22 23 25 25
14 17 25 29 30 31 31 27 29 29 36 36 35 35 37 38 41 41 53 59 55 47 50 48 42 43 36 40 39 38 38 36 36 33 34 32 31 29 29 28 27 28 29
13 12 17 27 30 32 33 30 27 27 29 37 38 39 37 36 38 39 43 55 54 53 46 53 48 47 45 41 43 42 41 38 38 37 38 38 36 35 32 31 33 33 32
11 18 17 23 29 30 31 32 29 28 29 29 38 42 42 41 41 39 43 45 49 55 57 55 53 47 48 45 44 44 42 41 42 40 40 39 41 40 40 40 37 38 41
8 5 9 19 27 30 31 32 32 29 30 32 29 38 43 41 41 40 44 43 42 50 51 56 60 53 47 45 45 46 46 46 46 46 46 44 45 43 42 40 42 44 43
12 6 3 2 8 26 29 31 31 32 32 33 32 30 35 43 45 45 43 42 42 42 45 53 56 56 61 59 54 53 52 49 48 47 44 45 43 41 43 44 45 48 51
17 18 19 2 6 12 21 27 31 32 33 33 36 37 34 36 42 44 49 47 47 46 47 49 50 53 56 59 59 56 52 50 49 49 48 48 47 46 48 48 50 51 50
19 23 26 28 27 4 15 22 27 32 32 34 36 39 42 40 39 40 43 46 47 48 51 51 49 51 52 48 50 50 51 51 52 52 52 51 48 49 51 50 50 52 48
16 18 22 25 27 24 20 11 23 29 33 34 37 43 43 43 41 41 44 45 47 50 50 51 52 52 49 53 55 53 51 50 51 52 51 50 49 51 51 52 52 52 50
17 15 17 20 25 27 27 24 24 25 30 35 38 41 40 41 45 45 44 43 46 48 50 52 53 53 55 58 56 53 49 49 49 49 47 48 51 54 49 47 44 47 47
17 19 20 21 22 24 27 28 27 21 19 31 37 40 40 41 44 46 45 47 49 47 51 54 51 53 54 54 53 52 50 49 46 44 45 47 52 50 44 43 46 47 49
17 19 20 22 22 20 17 20 21 22 25 26 33 37 40 43 45 44 46 49 50 49 48 48 49 50 51 48 48 47 45 46 47 45 41 40 43 43 42 46 45 50 51
20 22 21 19 20 22 25 26 24 21 22 22 26 31 39 42 43 44 47 47 44 45 47 46 44 44 45 45 44 40 39 40 42 45 46 48 46 47 49 50 46 39 35
21 23 23 20 21 27 30 31 28 23 22 24 26 22 29 41 43 44 45 43 41 40 38 43 44 43 43 43 41 41 41 40 42 44 48 49 47 44 40 35 33 33 24
20 23 24 25 27 29 29 29 30 28 27 25 27 29 27 27 39 39 39 39 39 42 45 46 45 44 42 39 38 36 38 40 40 38 36 34 34 27 20 17 18 18 15
19 20 21 22 26 32 34 32 31 32 31 30 28 27 26 25 29 33 38 39 41 43 43 41 38 36 38 34 35 36 35 34 31 27 23 16 12 12 14 15 16 13 9
16 18 19 21 25 28 29 31 33 33 33 29 25 28 28 25 23 30 37 40 39 37 36 35 35 31 20 22 22 20 19 16 19 17 18 18 17 18 18 13 10 7 5
18 19 21 21 25 26 27 26 27 28 26 24 21 19 15 17 21 20 23 26 28 31 33 31 28 24 20 19 20 18 22 24 25 27 25 21 17 14 11 9 8 6 5
18 18 19 20 23 24 24 23 23 22 21 17 12 9 4 1 6 11 13 19 20 23 28 26 25 24 22 19 22 21 21 24 22 23 20 17 12 10 9 7 7 7 6
16 17 18 19 21 21 21 20 20 17 13 12 8 11 15 21 25 25 27 22 19 18 18 21 23 29 33 23 28 27 21 20 17 15 17 16 12 10 8 7 6 6 7
Wind_Direction
190 191 191 192 216 223 193 211 198 200 200 197 200 200 169 166 179 169 163 173 192 190 180 180 177 180 178 183 181 180 189 188 190 193 191 197 203 219 222 217 215 214 218
171 176 189 193 195 218 201 202 206 196 190 180 181 171 176 162 161 165 171 179 193 192 189 185 183 184 179 187 192 191 196 193 196 197 193 197 219 222 220 226 233 230 221
174 175 185 194 194 207 208 204 204 196 193 178 181 175 169 165 170 170 175 191 193 195 188 194 198 187 189 188 202 208 199 195 201 201 197 197 216 234 241 233 228 233 222
180 177 185 194 198 202 211 203 199 199 195 187 187 186 182 184 179 174 182 190 197 191 194 203 201 197 194 192 214 218 202 198 211 212 203 211 219 262 217 235 230 227 231
195 177 184 192 205 193 207 208 199 195 196 193 194 196 198 198 187 184 187 191 195 195 200 197 201 198 200 198 215 221 217 204 209 226 221 223 233 249 249 215 232 236 236
193 179 184 189 195 198 208 208 200 196 198 196 199 199 200 198 194 194 197 195 198 206 206 203 201 203 212 210 215 219 226 223 216 218 228 236 237 247 255 251 241 242 243
173 178 173 182 191 195 202 205 203 199 199 201 204 205 205 206 206 205 203 201 202 206 212 215 212 213 216 220 219 218 224 230 231 232 235 232 240 246 247 251 259 260 256
163 183 182 187 192 196 203 214 205 203 202 202 208 210 208 211 213 215 212 208 208 210 213 221 222 221 225 227 226 227 231 234 238 237 243 246 247 248 252 249 253 257 256
169 181 190 190 193 198 201 214 207 206 209 206 205 208 207 214 218 218 220 217 217 215 221 225 224 222 225 233 235 236 237 239 239 242 247 249 250 251 252 251 255 258 256
172 187 192 196 195 201 206 210 217 209 221 214 210 210 210 215 221 221 222 223 225 222 230 225 226 227 229 231 237 242 243 245 247 249 249 250 252 255 258 258 255 255 256
58 4 209 199 200 199 202 212 211 211 213 233 223 213 213 211 217 219 221 228 226 226 230 230 226 228 229 231 239 245 249 249 248 244 248 251 255 257 257 258 255 255 258
34 87 21 298 221 196 200 211 216 210 214 223 239 228 218 214 219 221 224 224 224 227 229 229 234 239 237 239 242 244 247 246 245 247 248 251 253 252 256 255 259 259 269
11 3 15 50 189 205 208 211 220 223 215 216 226 238 233 223 221 223 223 226 224 225 228 232 234 230 237 240 245 246 246 246 245 248 247 247 250 252 255 258 260 262 268
17 15 6 2 11 285 220 222 226 230 231 219 220 230 239 237 229 227 226 225 224 226 226 230 233 234 231 234 234 234 237 239 242 245 246 250 251 253 257 260 260 258 261
22 11 358 352 350 350 358 307 233 232 241 235 225 228 231 237 236 234 231 231 229 228 229 227 230 228 230 233 233 235 238 241 243 245 247 250 251 254 258 261 261 261 259
27 7 1 360 350 343 334 329 347 242 233 239 237 235 232 233 232 229 227 227 233 232 228 231 231 232 235 236 237 236 237 240 242 244 245 248 250 254 261 261 264 262 264
12 12 6 1 350 338 335 328 315 316 302 241 245 238 234 236 236 235 228 230 231 230 232 232 231 235 239 241 241 240 240 241 242 245 247 247 252 257 255 251 252 256 263
19 12 6 356 352 344 327 312 311 296 302 300 250 246 239 236 239 237 231 237 235 230 231 232 233 234 239 240 244 243 242 245 246 247 250 254 256 258 256 253 252 257 253
13 9 359 350 342 327 325 324 319 296 285 295 296 266 247 243 239 239 238 236 232 231 232 233 235 235 237 239 239 243 241 242 244 246 248 249 250 253 255 255 258 248 241
14 2 356 350 338 337 337 336 331 316 293 288 290 294 286 248 238 237 239 239 235 235 233 233 231 232 234 238 241 236 234 238 242 246 246 246 247 248 249 249 248 238 221
9 344 349 349 342 341 343 342 337 323 302 291 284 277 268 269 247 236 237 236 232 229 230 230 230 231 232 235 235 236 239 238 238 239 241 243 247 246 246 231 217 213 180
3 350 346 346 339 344 343 342 338 331 320 300 291 285 287 261 236 231 231 226 226 226 226 226 225 224 232 237 240 239 238 235 232 224 223 219 211 202 188 177 163 158 154
354 349 343 341 338 347 346 342 340 334 327 315 301 294 284 277 249 232 228 225 224 223 222 220 221 218 211 209 213 207 202 200 198 174 165 159 150 148 141 137 125 125 92
355 351 348 347 346 349 347 343 341 338 330 324 318 299 282 267 257 235 212 214 211 212 206 202 196 184 181 168 163 163 173 172 156 141 131 126 120 116 108 108 102 77 51
358 360 2 2 1 357 355 351 352 350 338 345 335 332 326 108 187 178 178 184 182 194 189 178 170 155 134 140 132 128 126 117 113 123 121 111 100 89 81 57 45 30 15
9 13 17 17 17 15 14 13 9 10 9 27 41 72 81 86 80 97 99 93 120 122 122 128 129 117 113 116 116 118 114 108 119 113 102 101 99 91 80 61 42 9 357